Blytheville Muni Airport, AR

2:40 PM CST on December 12, 2017 (GMT -0600)
Blytheville Municipal

Weather History for KHKA - November, 2011

Change the Weather History Date:

Monday, November 28, 2011

  Actual Average Record
Temperature  
Mean Temperature 36 °F -  
Max Temperature 39 °F 54 °F 79 °F (1949)
Min Temperature 32 °F 37 °F 15 °F (1955)
Degree Days  
Heating Degree Days 30    
Moisture  
Dew Point 33 °F    
Average Humidity 90    
Maximum Humidity 96    
Minimum Humidity 86    
Precipitation  
Precipitation 0.60 in - - ()
Sea Level Pressure  
Sea Level Pressure 29.90 in    
Wind  
Wind Speed 16 mph (NW)    
Max Wind Speed 22 mph    
Max Gust Speed 29 mph    
Visibility 5 miles    
Events Rain , Snow    
Averages and records for this station are not official NWS values.
T = Trace of Precipitation, MM = Missing Value Source: NWS Daily Summary

Daily Weather History Graph

Daily Weather History Graph

Search for Another Location

Airport or City:

Trip Planner

Search our weather history database for the weather conditions in past years. The results will help you decide how hot, cold, wet, or windy it might be!

Date:

Astronomy

Nov. 28, 2011 Rise Set
Actual Time 6:48 AM CST 4:46 PM CST
Civil Twilight 6:20 AM CST 5:13 PM CST
Nautical Twilight 5:48 AM CST 5:45 PM CST
Astronomical Twilight 5:17 AM CST 6:16 PM CST
Moon 9:58 AM CST (11/28) 8:31 PM CST (11/28)
Length of Visible Light 10h 53m
Length of Day
9h 57m
Waxing Crescent, 16% of the Moon is Illuminated
Nov 28
Waxing Crescent
Dec 2
First Quarter
Dec 10
Full
Dec 17
Last Quarter
Dec 24
New

Hourly Weather History & Observations

Time (CST) Temp. Windchill Dew Point Humidity Pressure Visibility Wind Dir Wind Speed Gust Speed Precip Events Conditions
12:53 AM 39.0 °F 29.9 °F 35.1 °F 86% 30.05 in 10.0 mi North 17.3 mph - N/A   Overcast
1:53 AM 37.9 °F 28.9 °F 35.1 °F 89% 30.05 in 9.0 mi North 16.1 mph - N/A   Overcast
2:50 AM 37.4 °F 28.5 °F 35.6 °F 93% 30.03 in 4.0 mi North 15.0 mph - N/A   Overcast
2:53 AM 37.9 °F 28.2 °F 35.1 °F 89% 30.04 in 4.0 mi North 18.4 mph - N/A   Overcast
3:00 AM 37.4 °F 28.2 °F 35.6 °F 93% 30.03 in 4.0 mi North 16.1 mph - N/A   Overcast
3:08 AM 37.4 °F 28.5 °F 35.6 °F 93% 30.03 in 5.0 mi North 15.0 mph - N/A   Overcast
3:29 AM 37.4 °F 28.2 °F 35.6 °F 93% 30.02 in 8.0 mi North 16.1 mph - N/A   Overcast
3:53 AM 37.9 °F 30.0 °F 35.1 °F 89% 30.02 in 8.0 mi North 12.7 mph 21.9 mph N/A   Overcast
4:00 AM 37.4 °F 28.9 °F 35.6 °F 93% 30.02 in 8.0 mi North 13.8 mph - N/A   Overcast
4:34 AM 37.4 °F 27.8 °F 35.6 °F 93% 30.01 in 7.0 mi NNW 17.3 mph - 0.00 in Rain Light Rain
4:42 AM 37.4 °F 28.2 °F 35.6 °F 93% 30.01 in 7.0 mi North 16.1 mph - 0.00 in Rain Light Rain
4:53 AM 37.0 °F 28.1 °F 35.1 °F 93% 30.01 in 7.0 mi North 15.0 mph - 0.00 in Rain Light Rain
5:03 AM 37.4 °F 28.2 °F 35.6 °F 93% 30.00 in 7.0 mi North 16.1 mph - 0.00 in Rain Light Rain
5:11 AM 37.4 °F 28.5 °F 35.6 °F 93% 30.00 in 8.0 mi North 15.0 mph - 0.00 in Rain Light Rain
5:35 AM 37.4 °F 27.2 °F 35.6 °F 93% 30.00 in 10.0 mi North 19.6 mph - 0.00 in   Overcast
5:53 AM 37.9 °F 28.2 °F 34.0 °F 86% 30.00 in 10.0 mi North 18.4 mph - 0.00 in   Overcast
6:53 AM 37.9 °F 28.2 °F 34.0 °F 86% 30.00 in 9.0 mi North 18.4 mph - 0.00 in Rain Light Rain
7:53 AM 37.9 °F 27.6 °F 35.1 °F 89% 29.99 in 8.0 mi North 20.7 mph - 0.00 in Rain Light Rain
8:11 AM 37.4 °F 26.6 °F 33.8 °F 87% 29.98 in 9.0 mi North 21.9 mph - 0.00 in Rain Light Rain
8:53 AM 37.9 °F 27.3 °F 35.1 °F 89% 29.98 in 8.0 mi North 21.9 mph 26.5 mph 0.00 in Rain Light Rain
9:53 AM 37.9 °F 27.3 °F 35.1 °F 89% 29.96 in 4.0 mi North 21.9 mph 28.8 mph 0.00 in Rain Light Rain
10:53 AM 37.9 °F 28.9 °F 35.1 °F 89% 29.94 in 4.0 mi North 16.1 mph 26.5 mph 0.02 in Rain Light Rain
11:53 AM 37.9 °F 27.9 °F 35.1 °F 89% 29.90 in 5.0 mi North 19.6 mph - 0.01 in Rain Light Rain
12:53 PM 37.9 °F 27.9 °F 35.1 °F 89% 29.86 in 5.0 mi NNW 19.6 mph 27.6 mph 0.04 in Rain Light Rain
1:00 PM 37.4 °F 26.9 °F 35.6 °F 93% 29.85 in 4.0 mi NNW 20.7 mph - 0.00 in Rain Rain
1:08 PM 37.4 °F 26.9 °F 35.6 °F 93% 29.86 in 4.0 mi North 20.7 mph - 0.01 in Rain Rain
1:53 PM 37.9 °F 28.5 °F 35.1 °F 89% 29.84 in 3.0 mi NNW 17.3 mph - 0.05 in Rain Rain
2:49 PM 35.6 °F 24.5 °F 33.8 °F 93% 29.85 in 2.5 mi NNW 20.7 mph - 0.11 in Rain Rain
2:53 PM 36.0 °F 25.3 °F 33.1 °F 89% 29.86 in 2.5 mi NNW 19.6 mph - 0.13 in Rain Rain
3:14 PM 35.6 °F 24.8 °F 32.0 °F 87% 29.85 in 1.5 mi NNW 19.6 mph - 0.05 in Snow Light Snow
3:49 PM 33.8 °F 23.9 °F 32.0 °F 93% 29.85 in 2.0 mi NW 15.0 mph - 0.10 in Snow Light Snow
3:53 PM 34.0 °F 24.2 °F 32.0 °F 92% 29.86 in 1.5 mi NW 15.0 mph - 0.11 in Snow Light Snow
4:01 PM 33.8 °F 24.8 °F 32.0 °F 93% 29.86 in 1.0 mi NW 12.7 mph - 0.01 in Snow Light Snow
4:28 PM 33.8 °F 25.8 °F 30.2 °F 87% 29.85 in 0.8 mi WNW 10.4 mph - 0.04 in Snow Light Snow
4:41 PM 33.8 °F 25.8 °F 30.2 °F 87% 29.86 in 1.5 mi WNW 10.4 mph - 0.05 in Snow Light Snow
4:53 PM 33.1 °F 25.5 °F 30.9 °F 92% 29.87 in 1.5 mi WNW 9.2 mph - 0.06 in Snow Light Snow
5:04 PM 33.8 °F 24.3 °F 30.2 °F 87% 29.86 in 2.0 mi NW 13.8 mph - 0.01 in Snow Light Snow
5:12 PM 33.8 °F 25.3 °F 30.2 °F 87% 29.86 in 1.0 mi WNW 11.5 mph 19.6 mph 0.03 in Snow Light Snow
5:45 PM 33.8 °F 24.3 °F 30.2 °F 87% 29.86 in 2.5 mi NW 13.8 mph - 0.06 in Snow Light Snow
5:53 PM 33.1 °F 23.9 °F 30.9 °F 92% 29.86 in 3.0 mi WNW 12.7 mph - 0.07 in Snow Light Snow
6:01 PM 33.8 °F 24.8 °F 30.2 °F 87% 29.85 in 2.5 mi WNW 12.7 mph - 0.01 in Snow Light Snow
6:16 PM 32.0 °F 23.0 °F 30.2 °F 93% 29.86 in 1.2 mi West 11.5 mph - 0.02 in Snow Light Snow
6:23 PM 32.0 °F 23.6 °F 30.2 °F 93% 29.86 in 1.5 mi West 10.4 mph - 0.03 in Snow Light Snow
6:53 PM 32.0 °F 22.1 °F 30.9 °F 96% 29.86 in 1.0 mi West 13.8 mph - 0.05 in Snow Light Snow
7:53 PM 32.0 °F 22.5 °F 30.9 °F 96% 29.85 in 1.0 mi West 12.7 mph - 0.04 in Snow Light Snow
8:22 PM 33.8 °F 23.2 °F 30.2 °F 87% 29.83 in 3.0 mi West 17.3 mph - 0.01 in Snow Light Snow
8:29 PM 33.8 °F 23.5 °F 30.2 °F 87% 29.83 in 4.0 mi West 16.1 mph - 0.01 in Snow Light Snow
8:43 PM 33.8 °F 23.5 °F 30.2 °F 87% 29.83 in 6.0 mi West 16.1 mph - 0.01 in   Overcast
8:53 PM 33.1 °F 22.2 °F 30.9 °F 92% 29.83 in 7.0 mi West 17.3 mph - 0.01 in   Overcast
9:10 PM 33.8 °F 23.2 °F 30.2 °F 87% 29.81 in 9.0 mi West 17.3 mph - 0.00 in   Overcast
9:35 PM 33.8 °F 23.2 °F 30.2 °F 87% 29.81 in 4.0 mi West 17.3 mph 24.2 mph 0.00 in Snow Light Snow
9:53 PM 33.1 °F 21.5 °F 30.9 °F 92% 29.81 in 2.5 mi West 19.6 mph 24.2 mph 0.00 in Snow Light Snow
10:11 PM 33.8 °F 23.2 °F 30.2 °F 87% 29.80 in 1.5 mi West 17.3 mph 26.5 mph 0.01 in Snow Light Snow
10:24 PM 33.8 °F 22.5 °F 30.2 °F 87% 29.80 in 2.5 mi West 19.6 mph - 0.01 in Snow Light Snow
10:28 PM 33.8 °F 23.2 °F 30.2 °F 87% 29.80 in 3.0 mi West 17.3 mph 24.2 mph 0.01 in Snow Light Snow
10:53 PM 33.1 °F 22.2 °F 30.9 °F 92% 29.80 in 3.0 mi WNW 17.3 mph - 0.01 in Snow Light Snow
11:28 PM 33.8 °F 22.8 °F 30.2 °F 87% 29.78 in 6.0 mi WNW 18.4 mph - 0.00 in   Overcast
11:46 PM 33.8 °F 23.9 °F 30.2 °F 87% 29.78 in 6.0 mi WNW 15.0 mph - 0.00 in   Overcast
11:53 PM 33.1 °F 22.6 °F 30.9 °F 92% 29.78 in 5.0 mi WNW 16.1 mph - 0.00 in Snow Light Snow